Location: Staunton
(38.1490°N, 79.0720°W)
Time: 14:24:59
(UTC-04:00)

ISS - Pass Details

Date: 24 May 2017
Orbit: 402 x 408 km, 51.6° (Epoch: 29 May)

Event Time Altitude Azimuth Distance (km) Brightness Sun altitude
Rises 22:00:25 0° 236° (WSW) 2,320 0.2 -15.6°
Reaches altitude 10° 22:02:30 10° 240° (WSW) 1,463 -0.8 -15.9°
Maximum altitude 22:05:46 64° 323° (NW) 454 -3.4 -16.3°
Drops below altitude 10° 22:09:02 10° 45° (NE) 1,468 -1.0 -16.8°
Sets 22:11:08 0° 49° (NE) 2,330 0.0 -17.1°
